EW1633 Weather Reports


time (UTC)temp
F
wind
direction
speed
knots
gust
knots
rain 1hr
in
rain 24hr
in
rain mn
in
humidity
%
barometer
mb
20260505093042 0 219 3.5 7.8 0.00 0.00 0.00 1009.4
20260505091537 0 256 3.5 10.4 0.00 0.00 0.00 1009.3
20260505090021 0 255 3.5 9.6 0.00 0.00 0.00 1009.3
20260505084520 0 238 4.3 9.6 0.00 0.00 0.00 1009.2
20260505083014 0 256 3.5 7.8 0.00 0.00 0.00 1009.1
20260505081508 0 229 3.5 7.8 0.00 0.00 0.00 1009.1
20260505080002 0 237 2.6 7.0 0.00 0.00 0.00 1009.2
20260505074558 0 226 3.5 7.8 0.00 0.00 0.00 1009.2
20260505073055 0 232 3.5 11.3 0.00 0.00 0.00 1009.1
20260505071556 0 247 4.3 8.7 0.00 0.00 0.00 1009.0
20260505070029 0 249 3.5 8.7 0.00 0.00 0.00 1009.0
20260505064527 0 224 3.5 7.8 0.00 0.00 0.00 1008.9
20260505063012 0 245 2.6 8.7 0.00 0.00 0.00 1008.9
20260505061503 0 231 3.5 7.0 0.00 0.00 0.00 1008.8
20260505060057 0 244 4.3 10.4 0.00 0.00 0.00 1008.7
20260505054556 0 240 4.3 11.3 0.00 0.00 0.00 1008.8
20260505053056 0 252 5.2 11.3 0.00 0.00 0.00 1008.8
20260505051544 0 221 7.8 13.0 0.00 0.00 0.00 1008.7
20260505041515 0 256 8.7 13.9 0.00 0.00 0.00 1008.2
20260505040007 0 259 8.7 14.8 0.00 0.00 0.00 1008.0
20260505034503 0 250 7.0 13.9 0.00 0.00 0.00 1007.9
20260505033100 0 207 7.0 14.8 0.00 0.00 0.00 1007.7
20260505031555 0 261 5.2 13.9 0.00 0.00 0.00 1007.7
20260505030049 0 237 7.0 13.0 0.00 0.00 0.00 1007.4
20260505024546 0 245 6.1 13.9 0.00 0.00 0.00 1007.2
20260505023028 0 255 7.0 13.9 0.00 0.00 0.00 1007.1
20260505021526 0 247 7.8 14.8 0.00 0.00 0.00 1007.0
20260505020019 0 250 9.6 17.4 0.00 0.00 0.00 1007.1
20260505014514 0 248 7.0 13.9 0.00 0.00 0.00 1007.1
20260505013011 0 232 7.0 14.8 0.00 0.00 0.00 1007.2
20260505011509 0 268 8.7 15.6 0.00 0.00 0.00 1007.1
20260505010106 0 219 7.8 14.8 0.00 0.00 0.00 1007.2
20260505004557 0 226 8.7 13.9 0.00 0.00 0.00 1007.2
20260505003039 0 255 7.8 13.9 0.00 0.00 0.00 1007.2
20260505001536 0 256 5.2 13.0 0.00 0.00 0.00 1007.4
20260505000033 0 224 4.3 10.4 0.00 0.00 0.00 1007.4
20260504234526 0 231 5.2 12.2 0.00 0.00 0.00 1007.5
20260504233021 0 230 3.5 9.6 0.00 0.00 0.00 1007.4
20260504231516 0 248 5.2 11.3 0.00 0.00 0.00 1007.5
20260504230012 0 217 4.3 8.7 0.00 0.00 0.00 1007.6
20260504224509 0 243 4.3 9.6 0.00 0.00 0.00 1007.8
20260504223051 0 233 4.3 10.4 0.00 0.00 0.00 1008.0
20260504221546 0 234 5.2 10.4 0.00 0.00 0.00 1008.1
20260504220058 0 195 3.5 9.6 0.00 0.00 0.00 1008.2
20260504214550 0 249 2.6 7.8 0.00 0.00 0.00 1008.4
20260504213048 0 249 3.5 10.4 0.00 0.00 0.00 1008.5
20260504211534 0 232 2.6 8.7 0.00 0.00 0.00 1008.6
20260504210028 0 221 2.6 10.4 0.00 0.00 0.00 1008.7
20260504204526 0 244 5.2 11.3 0.00 0.00 0.00 1009.0
20260504203011 0 229 3.5 8.7 0.00 0.00 0.00 1008.9
20260504201503 0 226 2.6 8.7 0.00 0.00 0.00 1009.0
20260504194555 0 212 4.3 7.8 0.00 0.00 0.00 1009.3
20260504193051 0 227 3.5 8.7 0.00 0.00 0.00 1009.3
20260504191554 0 219 2.6 8.7 0.00 0.00 0.00 1009.4
20260504190047 0 214 3.5 9.6 0.00 0.00 0.00 1009.4
20260504184550 0 219 2.6 8.7 0.00 0.00 0.00 1009.4
20260504183034 0 240 2.6 7.0 0.00 0.00 0.00 1009.5
20260504181522 0 234 4.3 9.6 0.00 0.00 0.00 1009.4
20260504180009 0 214 3.5 7.0 0.00 0.00 0.00 1009.4
20260504174504 0 229 4.3 8.7 0.00 0.00 0.00 1009.4
20260504173106 0 253 2.6 9.6 0.00 0.00 0.00 1009.4
20260504171556 0 238 3.5 7.0 0.00 0.00 0.00 1009.3